Voltar ao catálogo

CZ-4 DEB

AtivoPO
NORAD 26121·DEBRIS·🇨🇳 China

Lançado Oct 14, 1999 de Taiyuan Satellite Launch Center

Loading…

Próximas Passagens (próximas 24 horas)

TLE

AtualizadoSource: Space-Track

Época: Sep 14, 2026, 08:20 UTC

1 26121U 99057H   26257.34748810  .00014400  00000-0  46765-3 0  9999
2 26121  98.6754   8.7379 0028266 249.2632 110.5576 15.31691800440321

Acompanhe CZ-4 DEB em tempo real com AllMySat

Download on the App Store